This is the latest recevied weather packets stored in our database for station/object DB8NZ-11. If no packets are shown the sender has not sent any weather packets the latest 10 day(s).
| Time | Temp. | Humidity | Pressure | Rain* | Wind** | Luminosity | Snow |
|---|---|---|---|---|---|---|---|
| 1777589328 | 7.22° C | 49% | 1033.1 hPa | - | - | - | - |
| 1777589079 | 7.22° C | 49% | 1033 hPa | - | - | - | - |
| 1777588179 | 7.78° C | 49% | 1033 hPa | - | - | - | - |
| 1777587279 | 7.78° C | 48% | 1033 hPa | - | - | - | - |
| 1777586379 | 8.33° C | 46% | 1032.9 hPa | - | - | - | - |
| 1777585479 | 8.33° C | 46% | 1032.7 hPa | - | - | - | - |
| 1777584579 | 8.33° C | 45% | 1032.7 hPa | - | - | - | - |
| 1777583679 | 8.89° C | 44% | 1032.6 hPa | - | - | - | - |
| 1777582778 | 8.89° C | 44% | 1032.4 hPa | - | - | - | - |
| 1777581878 | 9.44° C | 42% | 1032.5 hPa | - | - | - | - |
| 1777581586 | 9.44° C | 42% | 1032.4 hPa | - | - | - | - |
| 1777580686 | 10° C | 41% | 1032.4 hPa | - | - | - | - |
| 1777579785 | 10.56° C | 40% | 1032.4 hPa | - | - | - | - |
| 1777579163 | 11.11° C | 38% | 1032.3 hPa | - | - | - | - |
| 1777578263 | 11.11° C | 37% | 1032.2 hPa | - | - | - | - |
| 1777577363 | 11.67° C | 35% | 1032.1 hPa | - | - | - | - |
| 1777576463 | 12.78° C | 35% | 1032 hPa | - | - | - | - |
| 1777575562 | 13.33° C | 32% | 1031.7 hPa | - | - | - | - |
| 1777574662 | 14.44° C | 29% | 1031.6 hPa | - | - | - | - |
| 1777573877 | 15.56° C | 28% | 1031.5 hPa | - | - | - | - |
| 1777572977 | 16.11° C | 23% | 1031.3 hPa | - | - | - | - |
| 1777572077 | 17.22° C | 22% | 1031.1 hPa | - | - | - | - |
| 1777571176 | 17.78° C | 21% | 1031.2 hPa | - | - | - | - |
| 1777570276 | 18.89° C | 19% | 1031.3 hPa | - | - | - | - |
| 1777569376 | 18.89° C | 19% | 1031.3 hPa | - | - | - | - |
* Rain since midnight (hover to see other rain measurements)
** Current wind speed in m/s (hover to see current wind gust speed)